Regional Weather Roundup
Issued by NWS

Home | Current Version | Previous Version | Graphics & Text | Print | Product List | Glossary On
Versions: 1 2 3 4 5 6 7 8 9 10 11 12 13 14 15 16 17 18 19 20 21 22 23 24 25 26 27 28 29 30 31 32 33 34 35 36 37 38 39 40 41 42 43 44 45 46 47 48 49 50
000
ASUS44 KMEG 241200
RWRTN
TENNESSEE HOURLY STATE WEATHER ROUNDUP
NATIONAL WEATHER SERVICE MEMPHIS TN
700 AM CDT MON APR 24 2017

TNZ002-004-019-021-049-052-054-088>092-241300-
WEST TENNESSEE

CITY           SKY/WX    TMP DP  RH WIND       PRES   REMARKS
MEMPHIS INTL   CLEAR     51  47  86 NW3       29.89R
NWS MEMPHIS      N/A     49 N/A N/A MISG        N/A
JACKSON        RAIN      50  47  89 CALM      29.88R
DYERSBURG      CLEAR     51  45  79 N5        29.90R
PARIS          CLOUDY    48  45  87 N5        29.87R
$$

TNZ008-025-027-028-033-062-065-066-241300-
NORTH MIDDLE TENNESSEE

CITY           SKY/WX    TMP DP  RH WIND       PRES   REMARKS
NASHVILLE      CLOUDY    55  52  89 N3        29.85R
CLARKSVILLE    SUNNY     53  49  86 NE5       29.86R
SMYRNA         CLOUDY    55  53  93 N7        29.85R
CROSSVILLE     CLOUDY    51  49  92 NE7       29.82S
$$

TNZ061-075-076-078-094-096-097-241300-
SOUTH MIDDLE TENNESSEE

CITY           SKY/WX    TMP DP  RH WIND       PRES   REMARKS
TULLAHOMA      CLOUDY    54  54 100 NE6       29.82R
WINCHESTER     CLOUDY    54  52  94 N3        29.81R
COLUMBIA       CLOUDY   N/A N/A N/A N3        29.82S
SHELBYVILLE    CLOUDY    55  55 100 N5        29.84R
$$

TNZ017-018-042-046-047-241300-
NORTHEAST TENNESSEE

CITY           SKY/WX    TMP DP  RH WIND       PRES   REMARKS
TRI CITIES     CLOUDY    51  48  89 CALM      29.85R
$$

TNZ012-013-036-069-073-074-241300-
CENTRAL EAST TENNESSEE

CITY           SKY/WX    TMP DP  RH WIND       PRES   REMARKS
KNOXVILLE      CLOUDY    53  50  89 NE7       29.81R
OAK RIDGE      PTSUNNY   54  50  86 E7        29.84R
GATLINBURG     CLOUDY    52  50  93 CALM      29.82R
$$

TNZ083-085-099-241300-
SOUTHEAST TENNESSEE

CITY           SKY/WX    TMP DP  RH WIND       PRES   REMARKS
CHATTANOOGA    CLOUDY    56  54  93 N8        29.80R
$$

SKY/WX REPORTED AS FAIR MEANS FEW OR NO CLOUDS BELOW
12 THOUSAND FEET.





USA.gov is the U.S. government's official web portal to all federal, state and local government web resources and services.